Wind_Speed
37 36 35 34 33 32 32 33 33 31 31 33 32 30 30 30 30 30 28 24 24 25 25 25 21 19 20 18 16 17 18 18 18 17 17 15 15 14 13 12 12 11
37 36 35 33 33 33 32 33 34 34 33 33 32 30 30 31 31 30 28 25 26 25 26 26 22 20 22 20 17 20 21 19 18 18 17 16 16 15 14 13 13 12
38 37 36 34 33 34 33 33 34 35 34 33 33 32 31 31 32 32 30 27 27 27 27 27 22 21 24 22 19 22 23 20 19 18 18 18 17 16 15 13 13 13
38 37 37 36 34 34 35 34 33 34 34 34 33 33 32 32 32 33 33 31 30 29 28 27 24 23 25 25 23 24 23 22 21 19 18 20 19 18 17 15 14 14
39 38 37 37 35 35 35 35 34 34 34 34 34 34 34 34 33 32 34 34 33 32 31 29 27 25 27 28 27 26 25 24 23 21 19 20 21 20 19 17 16 15
39 38 38 37 36 36 36 36 35 34 35 34 34 34 35 35 34 33 34 36 35 34 33 32 30 28 28 30 29 28 28 27 26 25 23 21 21 21 20 20 18 17
38 38 38 38 37 37 37 36 35 35 35 35 34 35 36 36 36 36 36 36 36 36 36 34 33 31 30 32 31 29 29 28 27 28 27 24 23 22 22 22 21 19
39 38 38 38 38 38 38 38 36 35 35 35 35 36 37 37 38 38 37 37 38 38 37 36 35 33 33 34 34 31 30 30 29 29 29 27 25 24 24 24 23 22
38 38 39 39 38 38 39 38 37 36 35 36 37 37 37 38 39 39 39 39 39 39 39 38 37 36 35 35 36 34 33 32 32 31 31 30 28 27 26 25 24 23
38 39 39 39 39 39 39 39 37 36 36 37 38 38 39 39 39 39 40 40 40 40 39 39 38 38 37 37 37 37 36 34 34 33 32 32 32 30 28 27 25 24
39 39 40 40 40 40 39 39 37 37 38 38 38 38 39 39 39 39 40 41 42 41 40 40 40 39 39 38 38 38 37 35 34 33 33 32 32 32 30 29 27 26
40 39 41 42 41 40 39 39 38 37 38 39 39 38 38 39 39 40 40 41 42 42 41 40 39 39 39 39 37 37 36 34 32 32 32 32 32 32 31 29 28 27
41 41 42 42 41 40 39 39 39 38 38 39 39 38 37 38 39 40 40 41 41 40 39 39 38 37 38 37 36 36 35 33 32 33 33 32 31 31 30 29 28 27
42 43 43 41 41 41 39 39 39 39 38 39 39 38 38 38 39 40 40 39 39 39 38 37 36 36 36 36 36 34 33 33 34 34 32 31 30 29 28 28 28 27
42 42 41 40 39 40 40 39 39 39 38 38 38 39 38 37 37 38 38 37 36 36 36 35 35 35 35 36 36 33 33 34 34 33 32 31 30 29 28 27 27 27
42 41 40 39 39 40 41 40 39 39 38 37 38 39 38 37 36 35 36 36 35 34 34 34 34 34 34 36 37 36 35 36 35 33 32 31 30 28 28 28 28 26
41 40 39 39 40 40 40 40 38 37 37 36 36 38 38 37 35 34 35 35 34 34 34 34 34 34 34 36 39 39 38 37 35 33 32 30 29 29 29 29 28 26
41 40 39 39 39 39 39 39 37 35 35 35 35 36 37 36 35 34 34 34 33 33 34 35 35 35 36 37 39 40 39 37 34 32 31 30 29 30 29 29 28 27
41 40 39 39 39 38 37 36 35 34 34 35 34 34 35 35 34 32 32 32 33 34 34 35 35 34 36 37 39 40 40 37 34 30 29 29 30 30 29 28 27 25
40 39 38 38 37 36 34 34 35 34 33 33 32 31 33 33 31 30 30 32 33 34 35 35 34 34 36 37 39 40 40 38 34 29 28 28 29 28 28 27 26 24
39 38 36 35 35 34 33 32 33 33 31 30 29 29 29 31 30 29 28 30 32 33 34 34 33 35 36 37 39 39 39 38 34 29 27 28 28 28 28 26 25 23
39 36 34 34 33 33 32 32 32 31 29 29 27 25 25 26 27 28 27 27 29 31 31 32 33 35 36 37 38 37 37 37 34 28 26 27 27 28 29 28 26 24
38 36 34 33 33 32 31 30 30 29 28 28 26 24 22 22 23 24 24 24 26 28 30 31 31 33 34 35 35 34 34 35 32 27 25 26 26 26 27 27 25 23
37 36 35 33 33 32 30 28 28 28 28 28 27 24 22 21 21 21 20 21 23 25 28 29 28 29 30 31 30 31 33 34 32 27 26 26 25 24 23 23 22 22
37 36 35 34 32 31 29 28 28 28 28 28 27 25 23 21 20 19 19 19 20 22 24 25 26 26 26 27 27 28 31 35 33 29 27 25 24 23 22 21 22 24
37 36 35 34 33 31 30 30 29 28 28 27 26 25 23 21 20 20 19 19 19 19 20 21 22 23 24 25 25 26 31 34 33 31 29 26 25 24 22 22 23 24
Wind_Direction
198 197 197 196 196 196 196 197 197 194 189 186 187 187 188 189 189 191 194 194 194 195 197 199 201 197 193 199 209 207 202 199 199 200 199 202 207 202 202 209 214 217
199 198 197 196 197 197 198 199 198 196 194 192 192 191 190 191 192 193 193 193 195 197 198 199 201 198 195 198 203 200 199 200 199 200 201 205 208 205 207 211 214 218
200 198 197 196 197 198 199 201 200 198 197 197 197 196 193 193 194 195 194 193 194 196 196 198 200 198 194 195 196 193 195 197 196 200 206 209 210 208 208 210 212 217
200 198 197 197 197 198 200 200 200 198 198 198 198 198 196 194 194 196 196 194 194 195 196 199 204 202 196 196 197 194 195 197 198 203 209 212 214 213 209 209 212 215
200 198 197 197 197 198 200 201 200 199 198 198 197 198 197 195 195 197 196 195 196 198 200 203 206 205 200 199 203 203 202 202 202 203 207 211 215 215 211 209 211 214
200 198 197 197 198 199 200 202 202 200 199 198 197 198 198 197 197 198 197 196 198 201 203 204 205 205 202 202 205 208 208 208 206 205 207 212 214 216 216 213 214 217
200 198 197 197 199 201 202 203 202 201 201 199 197 198 198 198 198 198 199 199 200 201 203 203 203 204 204 204 205 208 209 210 209 209 210 213 214 216 217 216 217 219
200 199 198 198 199 201 204 205 204 203 201 200 199 199 200 200 200 199 200 201 201 201 202 203 204 205 204 204 205 207 208 209 210 210 211 212 213 215 216 217 221 222
200 200 199 199 199 201 204 206 205 204 202 202 202 202 202 202 202 202 201 202 202 202 202 203 203 204 205 205 206 207 208 209 210 210 210 211 213 213 214 216 220 221
201 201 200 200 201 202 205 206 206 205 204 204 204 204 204 204 205 204 203 203 203 203 203 204 204 204 205 206 207 207 208 208 208 209 211 212 214 214 213 215 216 217
202 201 201 201 202 203 205 205 205 205 206 206 206 205 205 206 205 206 205 205 205 205 205 206 205 205 205 206 208 208 209 209 208 208 211 214 215 215 215 216 215 217
202 202 202 203 203 204 205 205 205 205 206 207 207 206 206 207 207 207 207 207 208 208 208 207 207 206 206 207 208 209 210 211 210 211 213 215 217 217 218 218 217 219
203 203 204 204 204 204 205 205 205 206 207 208 208 207 207 208 208 209 210 210 210 210 210 209 208 207 207 207 208 210 210 210 212 214 215 216 218 219 219 219 218 220
204 204 205 204 204 204 205 206 207 207 207 208 208 208 209 209 210 211 211 211 211 211 211 210 209 208 207 206 208 209 209 211 213 216 216 216 218 218 218 217 218 221
204 205 205 204 204 204 205 207 208 207 207 208 208 208 210 211 211 212 211 211 211 211 212 211 210 208 206 206 208 208 209 212 215 215 216 216 216 216 215 215 216 221
204 204 204 203 203 204 205 207 207 207 207 207 208 209 209 210 211 211 210 210 210 210 210 210 210 209 207 208 210 210 211 213 215 215 216 216 215 214 213 213 215 219
203 203 203 203 203 203 204 205 206 206 206 206 207 208 208 208 209 209 210 210 210 209 209 209 210 209 208 211 213 214 213 213 215 216 216 215 214 213 212 212 214 217
201 202 202 202 203 203 204 204 204 204 204 205 206 205 205 205 205 207 208 208 209 209 209 210 210 209 209 212 215 216 214 213 215 216 215 213 213 212 211 211 212 216
200 200 201 202 202 202 203 202 202 203 203 204 205 203 201 201 203 205 205 206 207 208 209 210 210 209 210 214 217 218 215 213 214 216 214 213 213 213 212 211 212 216
198 199 199 200 201 201 201 200 200 201 202 202 201 200 198 199 200 202 204 205 206 206 208 209 208 208 211 216 219 220 217 213 213 216 215 214 213 213 213 212 212 217
196 196 196 197 197 197 197 197 197 198 198 197 195 195 196 198 199 201 203 205 204 204 205 206 208 210 214 218 220 220 217 213 212 213 213 214 213 211 211 211 210 215
192 192 191 192 192 192 193 193 193 192 191 190 188 188 191 194 197 200 203 204 203 203 202 204 208 212 215 219 220 219 216 212 211 211 212 212 211 211 213 214 213 216
188 187 186 186 186 187 188 187 187 186 185 185 183 182 184 188 192 197 201 202 201 200 201 202 206 210 214 217 218 217 215 210 207 208 208 208 208 209 212 213 213 221
185 183 182 181 182 183 183 181 180 180 181 182 180 179 182 187 190 193 196 199 199 199 201 203 205 208 212 214 214 214 213 208 204 204 206 205 204 205 208 212 219 232
181 180 178 176 177 178 177 174 173 175 177 178 179 181 182 183 185 187 190 194 198 199 201 204 206 207 208 210 210 210 212 210 206 206 207 206 206 209 213 219 230 239
175 175 173 172 172 173 171 170 170 171 172 174 177 179 176 174 177 182 184 187 191 195 199 204 208 210 211 212 211 211 213 211 207 207 209 212 216 218 221 226 234 240
Height
779 781 784 786 789 791 792 794 796 797 799 800 802 804 806 808 810 812 814 816 818 819 821 823 824 826 827 828 829 830 831 832 833 834 834 835 836 836 837 837 837 838
776 778 781 783 786 788 790 791 793 794 796 798 799 801 804 806 808 810 812 814 816 817 819 820 822 823 825 826 827 828 829 830 831 832 833 833 834 834 835 836 836 836
772 775 777 780 782 785 787 788 790 792 794 795 797 799 802 804 806 807 809 811 813 815 816 818 819 821 822 824 825 826 827 828 829 830 831 832 833 833 834 835 835 835
769 771 773 776 779 782 784 786 787 789 791 793 795 797 799 801 803 805 807 809 810 812 814 815 816 818 820 821 822 823 824 825 827 828 829 830 831 832 832 833 834 834
766 768 770 773 776 779 781 782 784 786 788 790 792 795 797 799 800 802 804 806 807 809 810 812 813 815 816 818 819 820 822 823 824 826 827 828 828 830 831 832 832 833
763 765 767 770 773 775 777 779 781 784 785 787 790 792 794 795 797 798 800 802 803 805 806 808 810 811 813 815 816 817 819 820 822 823 824 825 826 828 829 830 830 831
760 762 764 767 769 772 774 776 778 780 782 785 787 789 790 792 793 795 796 798 800 801 802 804 806 808 810 812 813 814 816 817 819 820 822 823 824 826 826 828 828 828
757 759 761 763 766 768 770 772 775 777 780 782 784 785 787 788 789 791 793 794 795 797 799 800 802 804 806 808 810 811 813 814 815 817 818 820 821 823 824 825 826 826
754 756 758 760 762 765 766 769 772 774 777 779 780 782 783 784 786 787 789 790 792 794 795 797 799 800 803 804 806 808 809 810 812 813 815 817 818 819 820 822 823 824
750 752 754 756 758 760 762 765 768 771 773 775 776 778 780 781 783 784 786 787 788 790 791 793 795 797 799 801 802 804 805 806 808 810 812 813 814 816 817 819 821 822
746 748 750 752 754 756 759 761 764 767 769 771 772 774 776 778 779 781 782 783 784 786 788 789 791 793 795 797 799 801 803 804 806 808 809 810 812 813 815 817 818 819
741 743 745 747 750 752 755 758 760 763 765 766 768 770 772 774 776 777 778 780 781 783 785 786 788 791 792 794 797 799 801 803 805 806 807 808 810 811 813 814 816 817
737 738 740 742 745 748 751 754 756 758 760 762 764 767 769 770 772 774 775 776 779 780 783 785 787 789 791 793 796 798 800 802 804 804 805 806 808 810 811 813 814 815
732 734 736 739 742 745 748 750 752 754 756 758 761 763 765 766 768 770 772 774 777 779 781 783 785 787 789 791 794 796 798 799 800 802 803 804 806 808 810 811 812 813
728 730 732 736 739 741 744 746 747 750 752 754 757 758 761 763 765 767 770 772 774 776 779 781 783 784 786 789 792 794 795 796 798 799 800 802 804 806 808 809 810 811
724 727 729 732 734 737 739 741 743 746 749 751 753 755 757 760 762 764 766 769 771 773 776 778 780 781 784 787 789 790 791 793 795 796 798 799 801 803 805 806 807 808
720 723 725 727 730 732 734 737 740 743 745 748 749 751 754 756 759 761 762 765 768 770 773 775 776 778 780 783 786 787 788 790 792 794 795 797 799 801 802 803 804 806
714 717 720 723 725 728 731 734 737 740 742 745 746 747 750 753 755 757 759 762 765 767 769 771 772 774 776 780 782 783 785 788 790 792 793 795 797 798 800 801 802 804
710 712 715 719 721 725 728 731 734 737 738 740 742 744 747 750 752 755 757 759 762 764 766 767 769 771 774 777 779 780 782 785 788 790 792 793 795 797 798 799 801 803
705 707 711 715 718 722 725 728 731 733 735 737 739 741 744 747 750 752 754 756 758 760 762 763 765 768 771 774 775 777 779 782 785 788 790 792 794 795 797 798 799 801
700 703 708 712 715 719 722 724 727 729 732 734 736 739 742 744 747 750 751 753 755 757 759 761 763 765 768 770 772 774 777 780 783 786 788 790 791 793 795 796 797 799
695 699 704 708 712 716 718 721 723 726 729 732 735 738 740 742 745 747 749 751 753 755 757 758 760 763 765 767 769 772 776 778 781 784 786 787 789 790 792 793 794 796
690 695 700 704 708 712 715 718 720 724 727 730 732 735 737 740 743 745 747 749 751 753 755 756 758 761 763 766 768 771 774 777 779 782 784 786 787 788 789 790 792 793
687 691 696 700 705 708 712 715 718 722 725 727 730 732 734 737 740 742 745 747 749 751 753 754 756 759 761 764 766 770 773 775 777 780 782 783 785 786 787 788 789 791
683 688 692 697 702 706 710 713 716 719 722 725 727 729 732 735 737 740 743 746 748 750 752 753 755 757 760 762 765 768 771 773 775 778 779 781 782 784 785 786 788 790
679 685 689 694 699 703 707 710 713 716 720 723 725 727 730 733 736 739 742 744 746 748 750 752 754 756 758 760 762 765 768 770 772 774 776 778 780 781 783 785 787 788